Date,Time,M02 Temperature (AVG),ΔΟΞΑΡΟ Rain Duration (SUM),M02 Precipitation (SUM),M02 WIND SPEED (AVG),ΔΟΞΑΡΟ Relative Humidity,ΔΟΞΑΡΟ WIND DIRECTION (AVG),M02 Barometric Pressure (AVG),M02 Pyranometer 0 - 2000 W/m² (AVG),ΔΟΞΑΡΟ Daily ETo
24/07/2015,00:00:00,24.4,0.0,0.0,1.4,*,167.7,982.2,351.9,6.32
25/07/2015,00:00:00,24.4,0.0,0.0,1.4,59.8,167.7,982.2,351.9,6.32
26/07/2015,00:00:00,25.1,0.0,0.0,1.5,56.5,169.6,983.0,347.9,6.32
27/07/2015,00:00:00,25.3,0.0,0.0,1.6,66.9,173.4,981.9,346.5,6.20
28/07/2015,00:00:00,26.2,0.0,0.0,1.2,56.5,162.0,980.3,350.9,6.56
29/07/2015,00:00:00,27.1,0.0,0.0,1.3,56.3,167.2,979.8,340.8,6.46
30/07/2015,00:00:00,27.7,0.0,0.0,1.4,51.5,162.5,980.3,346.9,6.83
31/07/2015,00:00:00,28.0,0.0,0.0,1.3,44.5,154.7,980.4,347.1,6.85
01/08/2015,00:00:00,27.9,0.0,0.0,1.5,55.2,166.5,980.0,343.9,6.71
02/08/2015,00:00:00,26.1,0.0,0.0,1.8,63.5,171.2,983.4,331.9,6.04
03/08/2015,00:00:00,24.7,0.0,0.0,1.7,71.9,210.1,986.5,272.8,4.74
04/08/2015,00:00:00,24.9,0.0,0.0,1.7,72.1,182.4,985.6,328.8,5.59
05/08/2015,00:00:00,24.8,0.0,0.0,1.7,73.4,179.5,983.9,323.1,5.64
06/08/2015,00:00:00,25.1,0.0,0.0,1.5,62.1,164.2,982.1,336.6,5.97
07/08/2015,00:00:00,24.8,0.0,0.0,1.6,75.5,170.0,981.4,312.1,5.00
08/08/2015,00:00:00,25.1,0.0,0.0,1.4,74.5,176.4,982.2,328.8,5.47
09/08/2015,00:00:00,24.5,0.0,0.0,1.5,78.6,179.0,985.0,271.9,4.49
10/08/2015,00:00:00,24.5,0.0,0.0,1.9,75.5,184.9,986.1,290.6,4.91
11/08/2015,00:00:00,25.0,0.0,0.0,1.6,65.4,172.9,985.2,306.1,5.55
12/08/2015,00:00:00,25.2,0.0,0.0,1.5,66.9,183.9,985.1,315.9,5.60
13/08/2015,00:00:00,25.3,0.0,0.0,1.7,66.6,167.2,985.9,335.8,5.91
14/08/2015,00:00:00,27.0,0.0,0.0,1.1,58.7,150.8,983.0,311.5,5.91
15/08/2015,00:00:00,25.0,30.1,0.6,0.9,70.4,124.7,982.0,123.6,2.49
16/08/2015,00:00:00,22.9,119.9,28.0,0.7,89.2,122.0,982.1,103.1,1.72
17/08/2015,00:00:00,24.7,0.0,0.0,1.3,76.9,152.4,983.0,325.0,5.72
18/08/2015,00:00:00,25.6,0.0,0.0,1.6,61.6,166.4,983.6,333.1,6.22
19/08/2015,00:00:00,24.7,0.0,0.0,1.7,62.0,177.5,983.4,340.4,6.12
20/08/2015,00:00:00,24.2,0.0,0.0,1.7,75.0,170.7,984.1,338.0,5.62
21/08/2015,00:00:00,25.6,0.0,0.0,1.4,61.4,174.6,986.2,328.7,6.00
22/08/2015,00:00:00,25.3,0.0,0.0,1.8,66.7,187.2,985.4,324.5,5.63
23/08/2015,00:00:00,24.7,0.0,0.0,1.8,76.7,207.5,984.4,300.6,4.75
24/08/2015,00:00:00,23.7,0.0,0.0,1.0,73.9,180.5,984.6,292.1,4.92
25/08/2015,00:00:00,22.8,0.0,0.0,1.4,70.2,198.3,986.1,304.9,4.94
26/08/2015,00:00:00,23.9,0.0,0.0,1.7,62.3,258.6,986.6,271.0,4.95
27/08/2015,00:00:00,22.7,0.0,0.0,1.4,67.9,202.7,986.2,260.1,4.50
28/08/2015,00:00:00,22.7,0.0,0.0,1.8,71.4,182.5,986.9,322.3,5.23
29/08/2015,00:00:00,22.5,0.0,0.0,1.6,73.7,163.6,988.7,313.2,5.15
30/08/2015,00:00:00,22.2,0.0,0.0,1.8,66.1,166.7,989.3,323.2,5.53
31/08/2015,00:00:00,22.5,0.0,0.0,2.0,72.8,177.5,988.8,310.7,5.25
01/09/2015,00:00:00,22.8,0.0,0.0,1.6,71.5,163.1,987.3,307.4,5.23
02/09/2015,00:00:00,23.9,0.0,0.0,1.3,61.2,157.4,985.8,309.3,5.48
03/09/2015,00:00:00,24.2,0.0,0.0,1.2,66.0,160.6,985.2,312.1,5.41
04/09/2015,00:00:00,24.5,0.0,0.0,1.8,67.1,169.6,984.5,301.9,5.44
05/09/2015,00:00:00,25.4,0.0,0.0,1.5,57.4,162.7,985.2,298.3,5.58
06/09/2015,00:00:00,26.5,0.0,0.0,1.1,43.4,145.7,987.0,304.9,5.76
07/09/2015,00:00:00,28.0,0.0,0.0,1.5,37.7,154.5,986.7,298.0,6.25
08/09/2015,00:00:00,28.3,0.0,0.0,1.4,46.3,155.5,985.7,270.6,5.52
09/09/2015,00:00:00,25.7,0.0,0.0,1.3,62.5,169.3,985.2,275.1,4.99
10/09/2015,00:00:00,24.1,0.0,0.0,1.2,72.8,143.1,986.5,273.5,4.49
11/09/2015,00:00:00,26.8,0.0,0.0,1.2,54.4,151.3,986.0,234.9,5.08
12/09/2015,00:00:00,25.0,0.0,0.0,1.4,67.4,156.8,989.0,264.4,4.63
13/09/2015,00:00:00,23.2,0.0,0.0,1.9,65.8,186.5,988.7,299.6,5.08
14/09/2015,00:00:00,21.9,30.0,0.6,1.2,76.1,216.2,988.7,146.0,2.56
15/09/2015,00:00:00,22.4,0.0,0.0,1.2,74.4,228.8,988.6,267.7,3.95
16/09/2015,00:00:00,21.9,0.0,0.0,1.3,75.6,184.4,988.1,247.3,3.51
17/09/2015,00:00:00,21.6,0.0,0.0,1.7,76.5,169.9,986.8,273.6,4.31
18/09/2015,00:00:00,21.8,0.0,0.0,1.5,72.6,158.6,985.9,273.7,4.55
19/09/2015,00:00:00,22.7,0.0,0.0,1.5,73.2,177.6,985.5,273.1,4.39
20/09/2015,00:00:00,22.2,0.0,0.0,1.2,76.1,163.9,985.8,211.5,3.99
21/09/2015,00:00:00,22.4,0.0,0.0,1.6,69.0,153.8,984.1,276.9,4.68
22/09/2015,00:00:00,20.3,270.3,7.4,0.9,75.8,120.7,979.9,90.7,1.28
23/09/2015,00:00:00,18.3,659.5,49.6,0.7,93.4,114.4,976.2,95.4,1.49
24/09/2015,00:00:00,21.0,0.0,0.0,0.8,82.1,155.9,979.2,217.9,3.77
25/09/2015,00:00:00,21.6,0.0,0.0,1.3,77.6,84.8,986.8,220.3,3.92
26/09/2015,00:00:00,22.2,0.0,0.0,0.9,75.6,114.7,986.6,261.2,4.40
27/09/2015,00:00:00,21.3,0.0,0.0,0.8,76.7,115.6,984.6,134.4,2.21
28/09/2015,00:00:00,21.1,0.0,0.0,1.4,78.1,156.8,986.8,224.3,3.59
29/09/2015,00:00:00,21.2,60.0,0.4,1.0,82.1,146.3,987.8,139.4,2.41
30/09/2015,00:00:00,20.3,90.2,4.2,0.9,80.4,139.8,988.2,229.2,3.36
01/10/2015,00:00:00,19.4,360.1,8.6,0.7,86.5,201.4,989.4,90.3,1.24
02/10/2015,00:00:00,18.0,569.6,13.0,0.5,88.1,244.9,992.4,29.7,0.40
03/10/2015,00:00:00,18.3,0.0,0.0,0.6,84.1,154.5,994.5,94.3,1.61
04/10/2015,00:00:00,18.5,0.0,0.0,0.8,82.9,159.4,995.6,163.2,2.70
05/10/2015,00:00:00,18.0,0.0,0.0,1.3,82.0,167.0,994.5,204.3,3.61
06/10/2015,00:00:00,19.2,0.0,0.0,1.5,81.8,154.7,988.7,252.1,3.84
07/10/2015,00:00:00,20.3,0.0,0.0,1.4,80.2,184.2,983.5,251.8,3.90
08/10/2015,00:00:00,21.1,0.0,0.0,1.6,80.6,159.0,982.7,242.3,3.62
09/10/2015,00:00:00,20.6,0.0,0.0,1.6,82.3,172.5,984.4,142.6,2.37
10/10/2015,00:00:00,20.4,0.0,0.0,1.1,80.9,137.3,988.5,228.5,3.45
11/10/2015,00:00:00,21.5,0.0,0.0,0.9,70.5,100.4,988.4,204.7,3.38
12/10/2015,00:00:00,27.2,0.0,0.0,1.4,44.1,173.1,983.1,39.1,2.12
13/10/2015,00:00:00,22.0,0.0,0.0,1.1,74.5,178.8,986.2,232.6,3.73
14/10/2015,00:00:00,19.4,0.0,0.0,1.3,77.5,143.3,988.4,230.8,3.34
15/10/2015,00:00:00,18.6,0.0,0.0,1.4,79.2,79.3,990.0,209.6,3.05
16/10/2015,00:00:00,17.9,0.0,0.0,1.0,79.1,142.2,990.5,221.5,3.28
17/10/2015,00:00:00,17.7,0.0,0.0,1.0,82.2,127.5,990.3,197.1,2.95
18/10/2015,00:00:00,18.6,0.0,0.0,1.1,83.3,150.5,991.0,211.9,3.11
19/10/2015,00:00:00,18.8,0.0,0.0,1.1,81.0,150.4,990.5,221.1,3.38
20/10/2015,00:00:00,20.2,0.0,0.0,1.0,76.5,145.0,988.1,203.3,3.25
21/10/2015,00:00:00,23.5,0.0,0.0,1.6,53.2,158.9,984.6,197.9,3.77
22/10/2015,00:00:00,19.6,0.0,0.0,0.8,76.8,130.5,984.8,73.1,1.25
23/10/2015,00:00:00,22.5,0.4,0.0,1.7,61.5,154.9,979.3,78.5,2.36
24/10/2015,00:00:00,17.9,600.1,31.9,1.1,85.7,160.6,977.0,59.1,1.02
25/10/2015,00:00:00,15.6,750.2,114.9,0.7,95.3,190.4,984.0,72.6,0.74
26/10/2015,00:00:00,15.5,1020.4,39.6,1.3,87.8,264.6,988.7,9.9,0.24
27/10/2015,00:00:00,15.4,119.9,1.0,1.2,76.5,247.5,990.1,123.3,2.04
28/10/2015,00:00:00,15.2,0.0,0.0,0.9,80.4,192.0,990.2,172.7,2.40
29/10/2015,00:00:00,15.1,0.0,0.0,1.4,66.4,237.1,990.1,43.6,1.14
30/10/2015,00:00:00,15.0,0.0,0.0,0.9,71.5,231.0,989.1,18.0,0.49
31/10/2015,00:00:00,14.4,30.0,0.2,0.6,83.3,116.7,990.6,47.3,0.76
01/11/2015,00:00:00,14.6,60.2,0.4,0.6,88.3,117.8,994.0,33.2,0.46
02/11/2015,00:00:00,14.4,390.0,3.4,0.5,88.3,158.6,997.8,4.8,0.07
03/11/2015,00:00:00,13.4,450.7,4.2,0.3,96.5,128.2,997.4,13.2,0.17
04/11/2015,00:00:00,13.6,0.0,0.0,1.1,86.4,155.5,995.0,154.9,1.97
05/11/2015,00:00:00,13.5,0.0,0.0,1.1,83.0,130.4,991.3,202.0,2.63
06/11/2015,00:00:00,12.7,0.0,0.0,1.4,83.0,139.6,990.0,194.5,2.57
07/11/2015,00:00:00,12.6,0.0,0.0,1.4,83.1,140.3,991.3,200.9,2.60
08/11/2015,00:00:00,14.2,0.0,0.0,1.0,81.5,146.5,993.5,189.0,2.44
09/11/2015,00:00:00,13.4,0.0,0.0,1.1,82.0,171.4,996.0,141.3,1.84
10/11/2015,00:00:00,13.6,0.0,0.0,1.2,78.0,142.9,994.6,194.1,2.64
11/11/2015,00:00:00,14.0,0.0,0.0,1.6,76.1,143.1,991.4,189.2,2.59
12/11/2015,00:00:00,14.9,0.0,0.0,1.4,76.6,135.9,992.8,177.8,2.56
13/11/2015,00:00:00,15.2,0.0,0.0,1.2,79.4,131.0,995.5,183.0,2.59
14/11/2015,00:00:00,14.8,0.0,0.0,1.2,84.9,146.0,997.4,184.3,2.52
15/11/2015,00:00:00,14.6,0.0,0.0,1.1,83.8,135.1,994.3,150.3,1.94
16/11/2015,00:00:00,15.0,0.0,0.0,0.9,82.9,126.2,988.3,140.3,1.80
17/11/2015,00:00:00,13.9,0.0,0.0,1.1,83.6,150.6,986.3,177.0,2.40
18/11/2015,00:00:00,13.7,0.0,0.0,1.1,82.4,139.0,990.2,172.4,2.29
19/11/2015,00:00:00,13.7,0.0,0.0,1.0,81.3,132.4,991.5,178.2,2.49
20/11/2015,00:00:00,14.5,0.0,0.0,1.1,84.5,140.1,993.1,176.8,2.44
21/11/2015,00:00:00,13.4,0.0,0.0,1.2,79.2,131.9,991.6,170.7,2.23
22/11/2015,00:00:00,14.5,0.0,0.0,1.0,77.7,97.0,985.4,174.3,2.52
23/11/2015,00:00:00,16.4,0.0,0.0,1.0,68.8,116.3,985.4,143.3,2.16
24/11/2015,00:00:00,15.4,0.0,0.0,1.3,72.8,103.1,992.3,151.4,2.39
25/11/2015,00:00:00,14.6,0.0,0.0,1.2,68.5,114.4,994.3,162.5,2.30
26/11/2015,00:00:00,15.9,60.0,2.0,1.0,68.1,132.1,985.1,53.1,0.86
27/11/2015,00:00:00,16.6,119.9,1.0,1.7,70.2,205.5,977.6,84.7,1.61
28/11/2015,00:00:00,14.8,0.1,0.0,1.4,70.6,168.3,981.4,48.5,1.15
29/11/2015,00:00:00,15.6,150.0,2.8,2.5,69.6,215.0,984.9,159.0,2.54
30/11/2015,00:00:00,12.7,150.0,1.2,1.1,85.3,128.1,990.2,113.5,1.38
01/12/2015,00:00:00,11.8,119.9,8.4,1.1,82.1,121.2,993.3,51.4,0.78
02/12/2015,00:00:00,10.9,0.0,0.0,1.1,74.6,142.1,995.4,168.0,2.20
03/12/2015,00:00:00,13.8,0.0,0.0,1.2,79.0,191.7,995.7,162.1,2.10
04/12/2015,00:00:00,11.5,0.0,0.0,1.3,79.7,78.0,1000.3,59.0,1.09
05/12/2015,00:00:00,10.9,0.0,0.0,0.8,75.1,94.3,1003.1,123.2,1.59
06/12/2015,00:00:00,10.9,0.0,0.0,0.9,75.9,122.1,1003.5,95.5,1.06
07/12/2015,00:00:00,10.0,0.0,0.0,1.4,81.4,127.8,1004.7,164.4,2.08
08/12/2015,00:00:00,10.1,0.0,0.0,1.3,86.1,134.5,1002.7,158.2,1.90
09/12/2015,00:00:00,10.5,0.0,0.0,1.0,85.5,136.6,1000.7,113.9,1.45
10/12/2015,00:00:00,12.0,0.0,0.0,0.6,80.5,228.7,998.1,23.1,0.37
11/12/2015,00:00:00,12.0,60.2,0.4,0.7,78.7,206.3,996.7,11.1,0.20
12/12/2015,00:00:00,10.9,300.4,4.8,0.7,84.9,87.4,994.4,32.5,0.52
13/12/2015,00:00:00,10.0,900.6,18.8,0.9,79.2,189.4,991.7,18.0,0.34
14/12/2015,00:00:00,10.4,360.7,2.0,0.9,84.3,205.7,993.8,76.4,0.90
15/12/2015,00:00:00,9.4,0.0,0.0,1.0,84.9,130.0,993.9,154.2,1.81
16/12/2015,00:00:00,10.4,0.0,0.0,0.6,91.1,113.4,994.8,37.0,0.48
17/12/2015,00:00:00,11.0,0.5,0.0,0.9,81.2,199.3,993.9,43.4,0.62
18/12/2015,00:00:00,10.5,720.2,15.0,0.8,83.4,200.6,991.8,12.1,0.23
19/12/2015,00:00:00,9.3,1020.3,26.0,0.4,94.3,86.7,993.1,5.4,0.05
20/12/2015,00:00:00,9.8,179.9,0.6,0.5,89.9,133.0,995.0,27.2,0.36
21/12/2015,00:00:00,10.1,0.0,0.0,0.5,93.6,100.6,999.2,10.3,0.11
22/12/2015,00:00:00,11.1,0.0,0.0,0.7,89.6,87.9,1001.5,31.3,0.44
23/12/2015,00:00:00,9.1,0.0,0.0,1.3,85.6,131.4,1000.9,163.0,1.77
24/12/2015,00:00:00,9.6,0.0,0.0,1.1,87.8,148.6,1000.8,107.8,1.29
25/12/2015,00:00:00,10.2,0.0,0.0,1.1,86.6,137.0,1000.9,157.2,1.85
26/12/2015,00:00:00,10.4,0.0,0.0,1.1,81.5,132.0,999.9,146.5,1.78
27/12/2015,00:00:00,12.0,0.0,0.0,0.9,79.2,122.2,1000.6,149.3,1.87
28/12/2015,00:00:00,10.6,0.0,0.0,0.8,80.3,135.6,1000.4,44.6,0.65
29/12/2015,00:00:00,10.4,0.0,0.0,1.1,86.7,86.4,998.7,106.2,1.27
30/12/2015,00:00:00,10.2,0.1,0.0,1.3,87.3,145.6,993.5,134.5,1.57
31/12/2015,00:00:00,10.1,180.8,1.2,1.0,79.8,89.1,992.5,40.1,0.63
01/01/2016,00:00:00,3.2,1260.2,47.4,0.7,85.5,122.3,994.2,12.6,0.13
02/01/2016,00:00:00,3.5,120.0,0.4,0.8,74.4,168.5,996.9,49.4,0.60
03/01/2016,00:00:00,5.7,60.0,0.2,1.0,87.6,85.0,994.3,35.1,0.37
04/01/2016,00:00:00,11.1,0.0,0.0,1.6,71.7,145.3,989.4,158.4,2.29
05/01/2016,00:00:00,15.4,0.0,0.0,2.5,64.9,258.6,981.3,107.3,2.05
06/01/2016,00:00:00,17.8,0.0,0.0,2.9,61.8,246.6,980.9,130.0,2.65
07/01/2016,00:00:00,18.9,0.2,0.0,1.6,43.1,158.9,981.3,132.5,3.12
08/01/2016,00:00:00,14.2,299.8,5.8,3.6,63.7,248.1,974.6,66.2,2.09
09/01/2016,00:00:00,13.2,0.0,0.0,2.8,74.4,244.7,983.7,155.0,2.06
10/01/2016,00:00:00,13.1,0.0,0.0,1.0,83.1,137.7,990.2,164.5,1.99
11/01/2016,00:00:00,12.7,0.0,0.0,0.6,84.9,87.1,989.5,55.0,0.72
12/01/2016,00:00:00,14.2,0.0,0.0,1.0,67.4,113.9,990.3,172.4,2.39
13/01/2016,00:00:00,14.2,0.0,0.0,1.1,66.4,85.6,987.5,174.7,2.45
14/01/2016,00:00:00,13.2,0.0,0.0,2.1,70.4,180.4,986.6,103.1,1.59
15/01/2016,00:00:00,11.7,0.0,0.0,1.7,71.4,200.8,991.2,118.5,1.71
16/01/2016,00:00:00,9.4,0.0,0.0,1.2,69.8,109.3,990.7,173.2,2.12
17/01/2016,00:00:00,12.0,0.5,0.0,1.7,70.1,84.1,982.9,107.7,1.68
18/01/2016,00:00:00,11.3,659.5,11.4,2.1,76.2,202.7,971.7,118.9,1.72
19/01/2016,00:00:00,6.7,539.7,13.8,2.9,78.7,260.6,975.5,171.7,1.58
20/01/2016,00:00:00,5.4,120.1,2.0,0.9,85.7,151.6,988.3,110.8,1.12
21/01/2016,00:00:00,9.3,300.0,4.6,1.2,77.1,176.7,987.2,71.4,1.00
22/01/2016,00:00:00,9.0,360.9,1.8,0.8,88.6,160.0,989.9,78.6,0.83
23/01/2016,00:00:00,8.3,240.5,2.8,0.5,88.9,140.1,994.8,26.5,0.29
24/01/2016,00:00:00,5.7,900.4,9.0,0.7,78.7,123.4,996.1,9.6,0.17
25/01/2016,00:00:00,5.2,61.5,0.2,1.4,64.0,195.1,999.5,25.3,0.57
26/01/2016,00:00:00,4.2,779.8,10.2,0.4,84.5,131.7,999.4,20.6,0.18
27/01/2016,00:00:00,7.7,420.7,2.0,1.7,73.1,243.1,996.3,164.2,1.76
28/01/2016,00:00:00,7.3,1.0,0.0,1.1,71.4,134.9,1000.8,61.6,0.87
29/01/2016,00:00:00,8.5,0.0,0.0,1.3,83.6,142.7,1000.8,159.2,1.84
30/01/2016,00:00:00,10.6,0.0,0.0,1.4,84.9,150.7,1000.2,99.9,1.28
31/01/2016,00:00:00,12.2,0.0,0.0,0.7,84.3,114.6,999.3,51.3,0.72
01/02/2016,00:00:00,10.1,0.0,0.0,1.2,78.7,137.6,996.1,171.3,2.16
02/02/2016,00:00:00,11.4,0.0,0.0,1.3,80.8,158.1,994.0,172.7,2.16
03/02/2016,00:00:00,11.6,0.0,0.0,1.3,80.4,136.3,998.6,200.7,2.47
04/02/2016,00:00:00,12.4,0.0,0.0,1.0,67.6,124.6,996.3,203.6,2.73
05/02/2016,00:00:00,11.2,0.5,0.0,0.9,78.8,79.0,990.6,116.1,1.59
06/02/2016,00:00:00,9.8,719.7,50.2,2.6,82.6,229.7,982.9,89.3,1.17
07/02/2016,00:00:00,7.8,300.8,12.8,2.4,64.3,241.8,994.2,30.0,0.91
08/02/2016,00:00:00,7.4,0.0,0.0,1.7,63.1,216.3,997.4,162.4,1.98
09/02/2016,00:00:00,6.3,0.0,0.0,1.3,77.2,138.8,995.9,208.7,2.17
10/02/2016,00:00:00,7.4,0.0,0.0,1.3,78.5,130.7,995.5,174.4,2.04
11/02/2016,00:00:00,11.0,0.0,0.0,1.1,70.2,134.8,989.6,164.5,2.15
12/02/2016,00:00:00,15.8,0.0,0.0,2.6,62.6,218.2,986.2,189.3,3.35
13/02/2016,00:00:00,14.1,0.0,0.0,0.9,65.6,129.4,987.7,148.8,2.17
14/02/2016,00:00:00,18.0,0.0,0.0,1.2,46.4,179.7,983.4,131.7,2.40
15/02/2016,00:00:00,19.6,0.0,0.0,1.1,45.6,128.9,984.1,76.8,1.82
16/02/2016,00:00:00,22.1,0.0,0.0,1.1,30.1,104.7,990.2,199.4,3.84
17/02/2016,00:00:00,20.3,0.0,0.0,1.2,36.7,110.1,997.5,213.2,3.96
18/02/2016,00:00:00,16.8,0.0,0.0,1.0,52.0,131.8,996.0,179.7,2.92
19/02/2016,00:00:00,18.6,0.0,0.0,1.7,46.0,131.1,985.4,153.1,3.27
20/02/2016,00:00:00,15.4,0.0,0.0,2.5,75.2,231.3,987.2,183.3,2.47
21/02/2016,00:00:00,12.9,0.3,0.0,2.0,76.2,166.0,989.6,214.7,2.98
22/02/2016,00:00:00,10.6,360.7,9.8,2.6,75.3,241.7,989.2,126.2,1.84
23/02/2016,00:00:00,11.8,0.0,0.0,1.0,67.6,138.6,991.9,237.7,3.11
24/02/2016,00:00:00,13.7,0.0,0.0,1.2,70.9,146.2,988.4,230.6,3.12
25/02/2016,00:00:00,12.9,0.0,0.0,1.0,85.5,123.1,984.5,118.7,1.56
26/02/2016,00:00:00,12.8,0.0,0.0,1.1,83.3,88.1,986.2,239.0,3.03
27/02/2016,00:00:00,12.2,0.0,0.0,1.2,84.6,152.8,984.9,212.6,2.57
28/02/2016,00:00:00,12.1,0.0,0.0,1.2,78.6,138.0,987.5,217.5,2.81
29/02/2016,00:00:00,13.1,0.0,0.0,1.4,65.5,134.3,990.7,249.0,3.47
01/03/2016,00:00:00,19.6,0.0,0.0,1.3,37.2,94.7,988.5,222.3,4.34
02/03/2016,00:00:00,19.5,0.0,0.0,2.4,53.6,116.5,985.1,228.6,4.62
03/03/2016,00:00:00,12.6,0.0,0.0,1.9,72.9,188.9,981.0,236.0,2.88
04/03/2016,00:00:00,12.8,0.2,0.0,2.4,66.2,197.1,977.5,236.2,3.18
05/03/2016,00:00:00,12.1,359.8,5.2,3.1,68.1,249.5,978.8,175.2,2.54
06/03/2016,00:00:00,11.9,0.0,0.0,2.0,68.1,213.3,986.4,271.0,3.23
07/03/2016,00:00:00,11.6,0.0,0.0,1.1,75.3,138.1,986.1,253.8,3.34
08/03/2016,00:00:00,14.3,0.0,0.0,1.1,50.9,126.4,981.2,264.3,3.93
09/03/2016,00:00:00,15.4,0.0,0.0,0.9,61.5,108.8,979.6,173.5,2.56
10/03/2016,00:00:00,12.7,60.0,0.4,2.0,77.1,184.3,976.9,169.2,2.31
11/03/2016,00:00:00,13.2,0.0,0.0,2.8,56.5,218.0,981.3,253.7,3.65
12/03/2016,00:00:00,12.9,0.0,0.0,1.3,63.3,100.4,986.4,226.5,3.18
13/03/2016,00:00:00,18.1,0.2,0.0,1.8,42.1,123.8,983.1,185.8,3.94
14/03/2016,00:00:00,15.0,240.2,14.8,1.4,67.6,165.2,978.9,108.2,1.83
15/03/2016,00:00:00,10.8,599.7,10.6,2.7,79.0,243.1,979.0,105.0,1.40
16/03/2016,00:00:00,9.5,121.0,0.6,2.1,75.4,227.3,988.0,142.0,1.85
17/03/2016,00:00:00,9.3,179.9,2.4,1.3,81.0,172.2,992.5,71.8,1.02
18/03/2016,00:00:00,9.3,0.0,0.0,0.9,74.1,205.4,995.6,60.1,0.86
19/03/2016,00:00:00,10.8,0.0,0.0,0.9,74.0,126.3,989.3,115.2,1.55
20/03/2016,00:00:00,13.2,60.0,0.4,2.3,76.2,178.7,984.1,286.8,3.46
21/03/2016,00:00:00,12.6,0.0,0.0,1.1,77.8,165.8,989.3,275.7,3.45
22/03/2016,00:00:00,12.3,0.0,0.0,1.5,76.4,149.5,991.3,294.5,3.75
23/03/2016,00:00:00,18.9,0.0,0.0,1.6,40.8,146.2,985.4,293.0,5.30
24/03/2016,00:00:00,20.6,0.0,0.0,3.0,28.7,133.5,975.8,130.7,4.55
25/03/2016,00:00:00,16.9,0.0,0.0,4.3,49.1,247.8,978.0,294.3,5.05
26/03/2016,00:00:00,14.3,0.1,0.0,1.8,60.2,171.4,983.5,262.9,3.98
27/03/2016,00:00:00,10.5,120.0,2.2,2.3,66.3,178.2,987.6,274.1,3.32
28/03/2016,00:00:00,9.7,120.0,8.2,1.7,77.0,199.1,985.3,169.6,2.02
29/03/2016,00:00:00,10.0,120.9,1.6,1.2,71.7,234.6,989.7,176.1,2.23
30/03/2016,00:00:00,11.7,0.0,0.0,1.5,81.2,159.3,991.4,235.8,2.93
31/03/2016,00:00:00,13.6,0.0,0.0,1.2,80.4,161.1,993.7,304.7,4.09
01/04/2016,00:00:00,14.1,0.0,0.0,1.5,67.2,155.3,994.9,317.6,4.58
02/04/2016,00:00:00,14.9,0.0,0.0,1.4,69.3,148.7,992.0,282.2,4.12
03/04/2016,00:00:00,14.8,0.0,0.0,1.3,69.2,155.0,990.3,273.1,4.00
04/04/2016,00:00:00,13.7,0.0,0.0,1.2,79.0,162.4,989.7,218.9,2.92
05/04/2016,00:00:00,14.6,0.0,0.0,1.2,84.7,161.0,986.7,253.1,3.33
06/04/2016,00:00:00,15.9,0.0,0.0,1.3,69.7,156.2,984.1,308.0,4.62
07/04/2016,00:00:00,17.0,0.0,0.0,1.4,55.0,153.3,983.3,311.1,4.94
08/04/2016,00:00:00,19.7,0.0,0.0,1.2,41.8,128.3,980.8,216.0,3.91
09/04/2016,00:00:00,25.0,0.0,0.0,2.0,33.5,165.3,977.1,277.0,6.15
10/04/2016,00:00:00,17.2,0.0,0.0,1.5,70.2,162.3,978.8,309.6,4.59
11/04/2016,00:00:00,16.2,0.0,0.0,2.4,56.4,177.9,979.9,306.8,4.99
12/04/2016,00:00:00,15.0,0.0,0.0,3.6,67.9,253.5,981.9,306.9,4.07
13/04/2016,00:00:00,16.5,0.0,0.0,2.4,66.2,222.4,985.2,330.7,4.63
14/04/2016,00:00:00,17.4,0.0,0.0,1.3,55.8,119.4,986.7,334.7,5.16
15/04/2016,00:00:00,20.8,0.0,0.0,1.5,40.6,153.6,985.1,310.5,5.66
16/04/2016,00:00:00,22.8,0.0,0.0,2.3,44.9,206.6,985.1,320.6,6.40
17/04/2016,00:00:00,17.9,0.0,0.0,1.6,67.0,154.8,990.0,328.1,5.00
18/04/2016,00:00:00,19.4,0.0,0.0,1.3,59.4,157.8,991.2,333.5,5.40
19/04/2016,00:00:00,19.6,0.0,0.0,1.7,38.8,159.4,991.0,353.1,6.13
20/04/2016,00:00:00,20.1,0.0,0.0,1.5,29.8,146.4,988.2,347.0,6.14
21/04/2016,00:00:00,23.3,0.0,0.0,1.5,28.2,139.8,984.5,233.7,5.14
22/04/2016,00:00:00,16.2,0.0,0.0,1.3,65.2,114.1,991.8,292.0,4.17
23/04/2016,00:00:00,14.4,0.0,0.0,1.5,72.2,163.4,990.3,344.1,4.58
24/04/2016,00:00:00,17.0,0.0,0.0,1.4,69.9,159.1,983.1,310.4,4.55
25/04/2016,00:00:00,17.4,0.0,0.0,1.4,68.7,167.6,978.1,319.3,4.68
26/04/2016,00:00:00,18.0,0.0,0.0,1.6,64.6,167.9,977.5,276.0,4.54
27/04/2016,00:00:00,14.4,0.0,0.0,2.9,68.0,188.9,980.4,345.2,4.28
28/04/2016,00:00:00,15.0,0.0,0.0,1.9,66.1,185.0,987.5,363.1,4.85
29/04/2016,00:00:00,16.8,0.0,0.0,1.4,54.6,154.5,988.6,351.8,5.45
30/04/2016,00:00:00,20.4,0.0,0.0,1.3,46.2,137.4,985.3,289.9,5.14
01/05/2016,00:00:00,20.0,0.0,0.0,2.1,60.8,182.6,982.6,166.5,3.00
02/05/2016,00:00:00,16.2,0.0,0.0,1.5,64.8,157.6,985.9,298.3,4.20
03/05/2016,00:00:00,18.8,60.0,0.2,1.7,61.5,161.2,982.4,178.4,3.27
04/05/2016,00:00:00,17.3,0.0,0.0,3.0,58.5,213.4,980.9,356.8,5.46
05/05/2016,00:00:00,16.4,60.1,4.4,3.6,66.9,258.4,980.9,261.7,4.02
06/05/2016,00:00:00,13.7,240.9,3.0,1.5,82.1,193.2,982.8,180.6,2.38
07/05/2016,00:00:00,14.2,60.0,0.2,1.3,74.3,177.9,986.3,280.5,3.77
08/05/2016,00:00:00,14.3,0.0,0.0,1.6,73.3,86.5,986.9,309.7,4.11
09/05/2016,00:00:00,17.1,0.0,0.0,1.2,66.5,134.1,986.3,257.0,3.84
10/05/2016,00:00:00,17.2,0.0,0.0,1.3,74.6,134.2,988.3,293.3,4.18
11/05/2016,00:00:00,17.4,0.0,0.0,1.2,61.2,163.6,988.5,365.9,5.52
12/05/2016,00:00:00,19.6,60.0,1.0,1.3,53.8,166.5,986.6,320.7,5.38
13/05/2016,00:00:00,25.3,61.0,0.4,1.3,55.0,135.4,981.4,234.3,4.56
14/05/2016,00:00:00,26.9,60.0,0.8,2.3,48.6,212.0,979.8,244.0,5.93
15/05/2016,00:00:00,20.8,60.3,0.2,1.0,64.5,130.1,983.0,158.2,2.81
16/05/2016,00:00:00,17.9,479.7,8.6,1.1,82.3,141.6,985.5,69.1,1.10
17/05/2016,00:00:00,17.0,0.0,0.0,1.8,71.3,166.5,987.7,372.7,5.33
18/05/2016,00:00:00,16.4,0.0,0.0,2.0,71.1,185.1,986.2,336.5,4.69
19/05/2016,00:00:00,17.1,0.0,0.0,1.9,68.0,184.3,987.1,406.6,5.55
20/05/2016,00:00:00,17.3,0.0,0.0,1.3,73.6,171.5,988.6,297.4,4.46
21/05/2016,00:00:00,19.9,0.0,0.0,1.0,63.8,139.0,986.6,225.7,3.90
22/05/2016,00:00:00,24.1,0.0,0.0,2.2,40.6,133.3,980.1,336.4,6.51
23/05/2016,00:00:00,16.4,0.0,0.0,2.0,72.3,201.3,984.5,182.6,2.80
24/05/2016,00:00:00,18.6,0.0,0.0,2.4,56.8,242.8,988.5,359.2,5.51
25/05/2016,00:00:00,20.0,0.0,0.0,1.7,53.7,161.2,986.0,365.5,5.94
26/05/2016,00:00:00,20.4,0.0,0.0,2.5,47.0,228.2,982.3,345.8,5.90
27/05/2016,00:00:00,19.4,0.0,0.0,1.2,56.5,176.7,983.3,375.0,5.81
28/05/2016,00:00:00,20.1,0.0,0.0,1.6,49.0,142.7,986.6,376.4,6.10
29/05/2016,00:00:00,20.2,0.0,0.0,1.4,50.7,133.8,988.1,372.0,6.01
30/05/2016,00:00:00,23.2,0.0,0.0,1.2,43.0,132.5,987.0,338.7,5.99
31/05/2016,00:00:00,26.3,0.0,0.0,1.1,39.0,144.1,985.7,357.8,6.50
01/06/2016,00:00:00,26.5,0.0,0.0,1.5,38.8,161.4,985.3,348.5,6.80
02/06/2016,00:00:00,26.5,0.0,0.0,1.5,30.0,154.7,986.3,349.3,7.02
03/06/2016,00:00:00,25.5,0.0,0.0,1.1,44.2,159.8,983.9,300.4,5.47
04/06/2016,00:00:00,24.5,0.0,0.0,1.8,38.4,157.9,982.1,311.0,6.05
05/06/2016,00:00:00,21.0,0.0,0.0,2.0,48.5,176.4,982.2,388.9,6.52
06/06/2016,00:00:00,22.2,0.0,0.0,1.5,51.8,176.4,985.3,365.8,6.12
07/06/2016,00:00:00,23.1,0.0,0.0,1.7,48.6,182.9,985.5,329.7,6.00
08/06/2016,00:00:00,22.5,0.2,0.0,1.6,54.1,158.3,985.3,368.5,6.19
09/06/2016,00:00:00,19.1,239.8,14.6,1.1,78.3,233.2,986.6,236.8,3.43
10/06/2016,00:00:00,18.4,0.0,0.0,0.9,61.9,200.5,986.2,391.0,5.53
11/06/2016,00:00:00,19.3,0.0,0.0,1.4,65.4,167.1,984.9,378.9,5.79
12/06/2016,00:00:00,21.3,0.0,0.0,1.3,63.9,141.6,986.6,372.5,5.89
13/06/2016,00:00:00,21.8,0.0,0.0,1.1,51.1,154.9,986.9,385.9,6.33
14/06/2016,00:00:00,24.5,0.0,0.0,1.2,45.7,136.2,980.7,261.6,5.15
15/06/2016,00:00:00,26.6,0.0,0.0,2.7,45.0,177.9,975.6,333.1,6.91
16/06/2016,00:00:00,22.5,0.0,0.0,2.3,53.1,210.3,982.4,386.9,6.67
17/06/2016,00:00:00,25.1,0.0,0.0,1.2,48.1,168.9,986.9,380.7,6.66
18/06/2016,00:00:00,25.9,0.0,0.0,1.2,45.1,153.5,988.4,368.5,6.75
19/06/2016,00:00:00,28.0,0.0,0.0,1.5,38.8,171.3,986.2,360.4,7.04
20/06/2016,00:00:00,29.4,0.0,0.0,1.5,36.0,148.1,983.3,355.6,7.18
21/06/2016,00:00:00,28.3,0.0,0.0,1.4,38.1,172.3,984.4,363.7,7.21
22/06/2016,00:00:00,26.9,0.0,0.0,1.7,50.0,177.3,986.0,350.2,6.75
23/06/2016,00:00:00,25.9,0.0,0.0,2.2,61.2,203.5,985.9,372.3,6.60
24/06/2016,00:00:00,25.9,0.0,0.0,2.2,62.3,236.8,985.3,365.8,6.34
25/06/2016,00:00:00,26.2,0.0,0.0,1.8,64.4,197.8,982.2,356.7,6.07
26/06/2016,00:00:00,25.0,0.0,0.0,1.6,69.0,163.4,980.0,369.7,6.21
27/06/2016,00:00:00,23.9,0.0,0.0,1.3,66.1,185.9,982.3,353.7,5.96
28/06/2016,00:00:00,25.5,0.0,0.0,2.2,66.0,237.7,983.9,335.2,5.91
29/06/2016,00:00:00,26.9,0.0,0.0,1.8,50.9,172.3,981.4,362.8,6.88
30/06/2016,00:00:00,24.4,0.0,0.0,2.1,61.4,132.1,982.4,351.9,5.89
01/07/2016,00:00:00,23.8,0.0,0.0,1.2,61.6,175.5,986.8,368.2,6.08
02/07/2016,00:00:00,25.2,0.0,0.0,1.4,58.5,182.8,986.9,369.3,6.60
03/07/2016,00:00:00,25.4,0.0,0.0,1.5,57.5,186.2,985.1,363.0,6.51
04/07/2016,00:00:00,25.9,0.0,0.0,1.3,54.6,188.5,983.5,362.0,6.48
05/07/2016,00:00:00,24.4,0.0,0.0,1.7,65.9,204.6,983.0,280.3,4.90
06/07/2016,00:00:00,24.7,0.0,0.0,1.6,67.2,201.9,983.9,372.5,6.11
07/07/2016,00:00:00,25.3,0.0,0.0,1.2,64.1,186.4,983.3,365.5,6.00
08/07/2016,00:00:00,24.3,0.0,0.0,1.1,55.4,142.0,983.7,364.3,6.11
09/07/2016,00:00:00,24.8,0.0,0.0,1.5,58.6,241.6,986.8,368.3,6.26
10/07/2016,00:00:00,22.9,0.0,0.0,1.9,57.8,181.4,986.3,359.7,5.95
11/07/2016,00:00:00,23.5,0.0,0.0,1.3,52.4,160.5,985.7,368.7,6.19
12/07/2016,00:00:00,23.7,0.0,0.0,1.6,53.1,204.2,985.2,367.8,6.27
13/07/2016,00:00:00,23.1,0.0,0.0,1.9,61.1,181.6,984.0,371.1,6.15
14/07/2016,00:00:00,23.4,0.0,0.0,1.7,65.2,168.4,983.7,372.2,6.35
15/07/2016,00:00:00,25.7,0.0,0.0,1.5,55.5,168.8,981.8,375.1,7.02
16/07/2016,00:00:00,27.8,0.0,0.0,1.3,44.3,155.5,980.6,369.8,7.04